Location: Morrison Observatory
(41.7012°N, 86.2315°W)
Time: 20:06:42
(UTC-04:00)

Daily predictions for brighter satellites

Satellite Brightness Start Highest point End
(mag) Time Altitude Azimuth Time Altitude Azimuth Time Altitude Azimuth
Cosmos 1464 Rocket 4.1 21:36:48 10° N 21:42:58 82° W 21:49:08 10° S
USA 234 4.5 21:37:22 10° E 21:43:10 35° NNE 21:48:59 10° NW
deb Chang Zheng 4 3.7 21:39:54 10° NNE 21:44:14 54° E 21:48:29 10° S
ERS-1 Rocket 3.0 21:39:32 10° SSE 21:44:31 74° ENE 21:49:33 10° N
Cosmos 2228 3.3 21:41:04 10° N 21:45:30 78° W 21:49:53 10° S
GEOS 3 Rocket 3.7 21:43:36 10° SE 21:48:52 88° ENE 21:54:08 10° NW
Cosmos 1626 Rocket 3.5 21:45:01 10° S 21:49:25 75° E 21:53:50 10° NNE
CZ-4 DEB 4.2 21:47:51 10° S 21:50:53 39° W 21:53:58 10° NNW
Cosmos 1603 3.8 21:46:31 10° SSW 21:52:08 87° WNW 21:57:46 10° NNE
FENGYUN 3A 4.3 21:47:08 10° S 21:52:24 58° W 21:57:45 10° NNW
Atlas Centaur 2 3.5 21:49:38 10° WSW 21:55:46 34° S 22:02:54 10° ESE
Envisat 3.3 21:54:56 10° SSE 21:59:52 54° ENE 22:04:49 10° N
Cosmos 407 Rocket 4.4 21:57:55 10° SSE 22:02:24 29° E 22:06:53 10° NE
Cosmos 1943 Rocket 3.7 22:00:00 10° N 22:04:15 22° NE 22:08:30 10° ESE
Cosmos 2034 Rocket 4.3 21:57:56 10° N 22:04:17 76° W 22:10:34 10° S
Nimbus 7 Rocket 4.4 22:00:18 10° NNE 22:06:13 65° ESE 22:12:02 10° S
Cosmos 1943 3.3 22:06:55 10° S 22:12:28 58° ESE 22:18:03 10° NNE
GRACE-1 4.2 22:14:30 10° N 22:17:21 67° W 22:20:11 10° S
Lacrosse 5 rocket 4.4 22:16:02 10° NW 22:17:45 12° NNW 22:19:30 10° N
GRACE-2 4.3 22:14:57 10° N 22:17:48 67° W 22:20:37 10° S
Cosmos 1939 Rocket 3.1 22:14:16 10° S 22:18:24 78° WSW 22:22:33 10° NNW
Cosmos 1346 Rocket 3.1 22:27:06 14° SSE 22:30:13 46° E 22:34:01 10° NNE
Cosmos 1992 Rocket 4.1 22:28:04 10° NNW 22:33:18 74° WSW 22:37:49 14° S
SeaSat 1 2.4 22:35:39 18° SE 22:39:18 78° ENE 22:44:15 10° NNW
ARGOS 3.5 22:36:49 19° SE 22:40:34 50° ENE 22:45:49 10° N
COSMOS 2455 3.8 22:37:03 10° SW 22:42:52 51° NW 22:48:44 10° NNE
USA 81 4.0 22:37:43 10° N 22:43:02 86° E 22:47:29 15° S
Cosmos 1758 Rocket 3.7 22:40:29 18° SSE 22:43:35 54° E 22:47:50 10° NNE
MetOp-B 4.2 22:45:19 16° S 22:49:42 80° WSW 22:55:06 10° NNW
ISS -1.0 22:47:04 10° W 22:49:55 27° NNW 22:52:47 10° NE
CZ-4B R/B 3.5 22:49:14 10° NNE 22:54:23 87° ESE 22:59:37 10° SSW
Cosmos 2369 Rocket 2.5 22:49:39 10° NNW 22:55:15 64° WSW 22:59:14 19° S
Cosmos 1190 Rocket 4.4 22:54:02 10° SSW 22:59:19 68° WNW 23:04:38 10° NNE
Cosmos 1825 Rocket 4.2 22:55:15 10° SSW 22:59:37 57° W 23:04:00 10° N
Landsat 7 4.3 22:58:24 26° SE 23:00:40 45° ENE 23:05:13 10° N
Cosmos 1766 3.3 22:57:19 10° N 23:01:19 69° E 23:03:02 33° SSE
CZ-4 R/B 3.9 23:00:34 10° NNE 23:05:36 78° ESE 23:09:21 18° S
H-2A R/B 2.6 23:04:51 26° ESE 23:07:06 41° ENE 23:11:52 10° N
Cosmos 1758 4.1 23:03:17 10° N 23:07:09 38° ENE 23:08:15 31° ESE
PSLV R/B 3.2 23:03:39 10° W 23:07:11 75° S 23:08:17 41° ESE
DELTA 2 DEB (DPAF) 4.3 23:05:25 31° SE 23:07:27 63° ENE 23:11:54 10° N
YAOGAN 6 3.1 23:06:29 25° S 23:08:26 56° W 23:12:09 10° NNW
NOAA 11 4.1 23:05:44 26° SSE 23:08:56 82° ENE 23:14:22 10° NNW
ATLAS 3B R/B 3.2 23:01:26 10° SW 23:09:08 74° NW 23:16:41 10° NNE
Cosmos 1140 Rocket 3.9 23:07:18 28° SSE 23:09:32 44° ESE 23:14:29 10° NNE
IGS 5A 4.3 23:12:41 29° ESE 23:13:50 35° ENE 23:17:39 10° N
SPOT 5 4.2 23:11:38 11° SSW 23:15:12 28° W 23:18:59 10° NW
SPOT 1/Viking Rocket 3.8 23:12:56 22° S 23:16:12 63° WSW 23:21:20 10° NNW
Terra 2.3 23:14:41 31° ESE 23:16:29 46° ENE 23:21:01 10° N
Cosmos 676 Rocket 4.1 23:11:16 10° SSW 23:16:35 79° WNW 23:21:57 10° NNE
Lacrosse 4 Rocket 2.8 23:16:48 10° SW 23:20:35 37° NW 23:24:26 10° NNE
Cosmos 2084 3.4 23:19:09 10° NNW 23:23:18 75° NE 23:24:37 44° SE
SAR-Lupe-2 3.7 23:23:38 49° ESE 23:24:10 55° ENE 23:27:40 10° N
USA 234 3.2 23:21:50 27° SE 23:25:42 89° NNE 23:32:19 10° NW
Cosmos 1470 4.3 23:24:38 10° NNE 23:27:44 22° ENE 23:27:56 22° E
Cosmos 1805 3.4 23:25:27 10° N 23:29:21 59° E 23:29:59 51° ESE
Lacrosse 5 4.5 23:26:20 10° NNW 23:29:24 16° NNE 23:32:28 10° NE
BREEZE-M DEB (TANK) 4.2 23:27:26 10° W 23:29:36 23° NNW 23:31:22 10° NE
SL-24 R/B 4.5 23:24:57 10° N 23:30:00 84° E 23:32:38 31° S
Cosmos 614 Rocket 4.4 23:30:46 38° SE 23:31:50 43° ESE 23:36:45 10° NNE
COSMOS 2406 3.1 23:33:42 26° S 23:36:57 73° ESE 23:42:41 10° NNE
Nadezhda 4 Rocket 4.0 23:34:52 33° SSE 23:37:50 67° E 23:44:08 10° NNE
CZ-4C R/B 3.9 23:38:41 38° SSW 23:39:57 55° W 23:43:54 10° NNW
DMSP B5D2-2 4.0 23:38:18 10° NNE 23:43:34 70° ESE 23:45:23 41° S
Atlas Centaur 2 3.7 23:38:09 10° WSW 23:44:44 32° S 23:46:02 30° S
SL-27 R/B 3.3 23:45:17 33° WSW 23:46:17 43° WNW 23:49:31 10° N
Cosmos 2221 4.0 23:43:56 10° NNE 23:47:23 23° ENE 23:47:39 23° E
SL-8 R/B 3.8 23:43:03 10° WNW 23:47:53 72° NNE 23:49:39 39° E
Cosmos 1943 Rocket 2.4 23:42:56 10° NNW 23:48:24 60° WSW 23:50:26 37° S
Cosmos-2242 3.6 23:45:58 10° NNW 23:50:15 52° W 23:51:34 38° SW
COSMOS 2487 3.3 23:54:06 41° ENE 23:54:06 41° ENE 23:56:46 10° NNE
Cosmos 1953 2.8 23:51:45 10° NNW 23:55:37 51° W 23:56:18 45° SW
